Weather History for KMTC - April, 2014

Change the Weather History Date:

Saturday, April 12, 2014

  Actual Average Record
Temperature  
Mean Temperature 53 °F -  
Max Temperature 68 °F 54 °F - (-1)
Min Temperature 39 °F 34 °F - (-1)
Degree Days  
Heating Degree Days 12    
Growing Degree Days 3 (Base 50)    
Moisture  
Dew Point 42 °F    
Average Humidity 68    
Maximum Humidity 100    
Minimum Humidity 35    
Precipitation  
Precipitation 0.07 in - - ()
Sea Level Pressure  
Sea Level Pressure 29.97 in    
Wind  
Wind Speed 8 mph (SE)    
Max Wind Speed 33 mph    
Max Gust Speed 51 mph    
Visibility 10 miles    
Events Rain , Thunderstorm    
Averages and records for this station are not official NWS values.
T = Trace of Precipitation, MM = Missing Value Source: NWS Daily Summary

Daily Weather History Graph

Daily Weather History Graph

Search for Another Location

Airport or City:

Trip Planner

Search our weather history database for the weather conditions in past years. The results will help you decide how hot, cold, wet, or windy it might be!

Date:

Astronomy

Apr. 12, 2014 Rise Set
Actual Time 6:54 AM EDT 8:09 PM EDT
Civil Twilight 6:25 AM EDT 8:39 PM EDT
Nautical Twilight 5:51 AM EDT 9:14 PM EDT
Astronomical Twilight 5:14 AM EDT 9:51 PM EDT
Moon 5:44 PM EDT (4/12) 5:24 AM EDT (4/12)
Length of Visible Light 14h 13m
Length of Day
13h 14m
Waxing Gibbous, 93% of the Moon is Illuminated
Apr 12
Waxing Gibbous
Apr 15
Full
Apr 22
Last Quarter
Apr 29
New
May 6
First Quarter

Hourly Weather History & Observations

Time (EDT) Temp. Windchill Dew Point Humidity Pressure Visibility Wind Dir Wind Speed Gust Speed Precip Events Conditions
12:58 AM 39.2 °F - 33.8 °F 81% 30.05 in 10.0 mi SW 2.3 mph - N/A   Clear
1:58 AM 40.5 °F - 35.2 °F 82% 30.06 in 10.0 mi WSW 2.3 mph - N/A   Mostly Cloudy
2:58 AM 42.6 °F 39.0 °F 35.8 °F 77% 30.07 in 10.0 mi WSW 5.8 mph - N/A   Overcast
3:58 AM 49.6 °F - 30.9 °F 49% 30.09 in 10.0 mi WSW 4.6 mph - N/A   Scattered Clouds
4:58 AM 42.6 °F - 33.8 °F 71% 30.10 in 10.0 mi Calm Calm - N/A   Clear
5:58 AM 40.5 °F - 34.0 °F 78% 30.10 in 10.0 mi North 2.3 mph - N/A   Partly Cloudy
6:58 AM 39.6 °F - 36.0 °F 87% 30.11 in 10.0 mi NE 1.2 mph - N/A   Partly Cloudy
7:55 AM 43.5 °F 40.1 °F 42.3 °F 95% 30.12 in 7.0 mi ENE 5.8 mph - N/A   Mostly Cloudy
8:55 AM 49.6 °F - 40.1 °F 70% 30.13 in 7.0 mi ENE 6.9 mph - N/A   Mostly Cloudy
9:55 AM 52.0 °F - 39.9 °F 63% 30.12 in 10.0 mi East 6.9 mph - N/A   Clear
10:55 AM 56.3 °F - 41.9 °F 59% 30.12 in 10.0 mi SSE 6.9 mph - N/A   Partly Cloudy
11:55 AM 59.9 °F - 43.7 °F 55% 30.10 in 7.0 mi SSE 12.7 mph - N/A   Scattered Clouds
12:55 PM 64.9 °F - 38.5 °F 38% 30.07 in 10.0 mi South 10.4 mph - N/A   Mostly Cloudy
1:55 PM 67.8 °F - 38.8 °F 35% 30.05 in 10.0 mi SSE 16.1 mph - N/A   Mostly Cloudy
2:55 PM 66.6 °F - 41.9 °F 41% 30.03 in 10.0 mi SSE 13.8 mph - N/A   Overcast
3:55 PM 65.7 °F - 42.1 °F 42% 30.01 in 10.0 mi SSE 12.7 mph - N/A   Overcast
4:55 PM 63.9 °F - 44.4 °F 49% 29.97 in 10.0 mi SE 13.8 mph - N/A   Overcast
5:55 PM 61.0 °F - 43.0 °F 52% 29.93 in 10.0 mi SE 15.0 mph - N/A   Overcast
6:55 PM 58.5 °F - 42.6 °F 56% 29.90 in 10.0 mi SE 16.1 mph - N/A   Overcast
7:55 PM 54.9 °F - 41.2 °F 60% 29.84 in 10.0 mi ESE 18.4 mph 28.8 mph N/A   Overcast
8:22 PM 55.4 °F - 41.0 °F 58% 29.93 in 10.0 mi WNW 23.0 mph 31.1 mph N/A Thunderstorm Thunderstorm
8:28 PM 57.2 °F - 41.0 °F 55% 29.94 in 10.0 mi West 12.7 mph 32.2 mph N/A Thunderstorm Thunderstorm
8:31 PM 59.0 °F - 41.0 °F 51% 29.84 in 10.0 mi South 28.8 mph 41.4 mph N/A Thunderstorm Thunderstorm
8:32 PM 60.8 °F - 42.8 °F 52% 29.82 in 9.0 mi South 33.4 mph 41.4 mph N/A Rain , Thunderstorm Light Thunderstorms and Rain
8:33 PM 60.8 °F - 42.8 °F 52% 29.84 in 9.0 mi South 31.1 mph 50.6 mph N/A Rain , Thunderstorm Light Thunderstorms and Rain
8:46 PM 60.8 °F - 44.6 °F 55% 29.86 in 10.0 mi SSW 5.8 mph 43.7 mph N/A Rain , Thunderstorm Light Rain
8:47 PM 60.8 °F - 44.6 °F 55% 29.87 in 10.0 mi Variable 6.9 mph 43.7 mph N/A Thunderstorm Mostly Cloudy
8:58 PM 61.0 °F - 44.4 °F 54% 29.90 in 10.0 mi South 6.9 mph - 0.02 in   Overcast
9:01 PM 60.8 °F - 44.6 °F 55% 29.88 in 9.0 mi Variable 2.3 mph - N/A Rain Light Rain
9:25 PM 53.6 °F - 48.2 °F 82% 29.89 in 10.0 mi NNE 15.0 mph - N/A Rain Light Rain
9:30 PM 51.8 °F - 48.2 °F 88% 29.89 in 9.0 mi ENE 9.2 mph - N/A Rain Rain
9:35 PM 51.8 °F - 48.2 °F 88% 29.89 in 10.0 mi NE 10.4 mph - N/A Rain Light Rain
9:58 PM 50.5 °F - 47.3 °F 89% 29.90 in 10.0 mi ENE 11.5 mph - 0.04 in Rain Light Rain
10:27 PM 48.2 °F - 48.2 °F 100% 29.87 in 10.0 mi ENE 10.4 mph - N/A   Overcast
10:28 PM 48.2 °F - 48.2 °F 100% 29.88 in 10.0 mi ENE 10.4 mph - N/A   Light Drizzle
10:29 PM 48.2 °F - 48.2 °F 100% 29.88 in 10.0 mi ENE 11.5 mph - N/A   Overcast
10:58 PM 48.0 °F - 46.9 °F 96% 29.88 in 10.0 mi East 10.4 mph - 0.01 in   Overcast
11:58 PM 46.9 °F - 46.8 °F 99% 29.88 in 10.0 mi East 3.5 mph - N/A   Overcast